EW0380 Weather Reports


Display with metric or nautical units.
time (UTC)temp
F
wind
direction
speed
MPH
gust
MPH
rain 1hr
in
rain 24hr
in
rain mn
in
humidity
%
barometer
mb
20260831084920 67 145 1.0 2.0 0.00 0.22 0.00 99 1018.2
20260831083920 68 170 4.0 6.0 0.00 0.22 0.00 98 1018.2
20260831082920 68 170 2.0 3.0 0.00 0.22 0.00 99 1018.2
20260831081920 68 146 4.0 6.0 0.00 0.22 0.00 98 1018.2
20260831080920 68 158 1.0 2.0 0.00 0.22 0.00 99 1018.2
20260831075920 68 160 3.0 5.0 0.00 0.22 0.00 98 1018.2
20260831074920 68 184 1.0 3.0 0.00 0.22 0.00 99 1017.8
20260831073920 68 153 1.0 2.0 0.00 0.22 0.00 99 1018.2
20260831072920 68 159 2.0 4.0 0.00 0.22 0.00 99 1018.2
20260831071920 68 140 1.0 4.0 0.00 0.22 0.00 98 1018.2
20260831070921 68 146 4.0 7.0 0.00 0.22 0.00 98 1018.5
20260831065920 68 174 0.0 2.0 0.00 0.22 0.00 98 1018.5
20260831064920 68 166 3.0 4.0 0.00 0.22 0.00 98 1018.1
20260831063920 68 0.0 0.0 0.00 0.22 0.00 99 1018.1
20260831062920 68 0.0 0.0 0.00 0.22 0.00 99 1018.5
20260831061940 68 171 1.0 2.0 0.00 0.22 0.00 99 1018.2
20260831060920 67 156 2.0 2.0 0.00 0.22 0.00 99 1018.5
20260831055940 68 125 1.0 2.0 0.00 0.22 0.00 99 1018.2
20260831054920 68 145 3.0 4.0 0.00 0.22 0.00 98 1018.2
20260831053932 68 164 1.0 2.0 0.00 0.22 0.00 99 1018.5
20260831052920 68 134 4.0 6.0 0.00 0.22 0.00 99 1018.5
20260831051920 68 133 2.0 4.0 0.00 0.22 0.00 99 1018.5
20260831050940 68 122 3.0 5.0 0.00 0.22 0.00 99 1018.5
20260831045920 68 147 4.0 6.0 0.00 0.22 0.00 99 1018.7
20260831044920 68 138 1.0 3.0 0.01 0.22 0.00 99 1018.7
20260831043920 68 123 3.0 4.0 0.02 0.22 0.00 99 1019.4
20260831042920 68 153 2.0 4.0 0.05 0.22 0.00 99 1019.1
20260831041940 68 115 0.0 2.0 0.05 0.22 0.00 99 1019.4
20260831040920 68 0.0 0.0 0.05 0.22 0.00 99 1019.8
20260831035920 68 0.0 0.0 0.05 0.22 0.22 99 1019.4
20260831034920 68 167 1.0 2.0 0.04 0.21 0.21 99 1019.8
20260831033920 68 0.0 0.0 0.03 0.20 0.20 99 1020.1
20260831032940 68 0.0 0.0 0.00 0.17 0.17 99 1020.1
20260831031920 68 0.0 0.0 0.00 0.17 0.17 99 1019.8
20260831030920 68 0.0 0.0 0.00 0.17 0.17 99 1019.4
20260831025940 68 0.0 0.0 0.00 0.17 0.17 99 1019.4
20260831024920 68 0.0 0.0 0.00 0.17 0.17 99 1019.4
20260831023920 68 0.0 0.0 0.00 0.17 0.17 99 1019.4
20260831022920 68 160 2.0 2.0 0.00 0.17 0.17 99 1019.4
20260831021940 68 0.0 0.0 0.00 0.17 0.17 99 1019.7
20260831021040 68 0.0 0.0 0.00 0.17 0.17 99 1019.4
20260831015920 69 0.0 0.0 0.00 0.17 0.17 99 1019.4
20260831014920 69 0.0 0.0 0.01 0.17 0.17 99 1019.7
20260831013940 69 0.0 0.0 0.01 0.17 0.17 99 1019.7
20260831012920 69 0.0 0.0 0.01 0.17 0.17 99 1019.7
20260831011920 69 174 1.0 2.0 0.02 0.17 0.17 99 1019.7
20260831010920 69 0.0 0.0 0.03 0.17 0.17 99 1020.0
20260831005920 69 144 2.0 2.0 0.04 0.17 0.17 99 1020.0
20260831004920 69 0.0 0.0 0.03 0.15 0.15 99 1020.0
20260831003920 69 0.0 0.0 0.03 0.15 0.15 99 1020.0
20260831002920 70 0.0 0.0 0.04 0.15 0.15 99 1020.0
20260831001920 70 0.0 0.0 0.04 0.14 0.14 99 1020.0
20260831000920 70 0.0 0.0 0.06 0.13 0.13 99 1020.0
20260830235920 70 337 2.0 2.0 0.04 0.12 0.12 99 1019.4
20260830234920 70 0.0 0.0 0.04 0.12 0.12 98 1019.4
20260830233920 70 0.0 0.0 0.04 0.12 0.12 99 1019.0
20260830232940 70 0.0 0.0 0.03 0.11 0.11 99 1019.0
20260830231920 70 0.0 0.0 0.04 0.10 0.10 99 1019.0
20260830230920 70 0.0 0.0 0.02 0.08 0.08 99 1018.7
20260830225920 71 0.0 0.0 0.02 0.08 0.08 98 1018.4
20260830224920 71 0.0 0.0 0.02 0.08 0.08 98 1018.4
20260830223940 71 0.0 0.0 0.02 0.08 0.08 96 1018.4
20260830223000 72 0.0 0.0 0.02 0.08 0.08 94 1018.4
20260830221920 73 0.0 0.0 0.00 0.06 0.06 91 1018.4
20260830220920 73 0.0 0.0 0.00 0.06 0.06 87 1018.4
20260830215920 74 0.0 0.0 0.00 0.06 0.06 85 1018.8
20260830215001 74 161 2.0 2.0 0.00 0.06 0.06 84 1018.8
20260830213940 74 0.0 0.0 0.00 0.06 0.06 85 1018.8
20260830212920 75 0.0 0.0 0.00 0.06 0.06 83 1018.8
20260830211940 75 191 1.0 2.0 0.00 0.06 0.06 84 1018.8
20260830210933 75 177 2.0 2.0 0.00 0.06 0.06 81 1018.5
20260830205920 75 150 3.0 5.0 0.00 0.06 0.06 83 1018.8
20260830204941 75 148 3.0 4.0 0.00 0.06 0.06 84 1018.8
20260830203920 76 0.0 0.0 0.00 0.06 0.06 85 1019.2
20260830202920 76 108 1.0 2.0 0.00 0.06 0.06 81 1019.2
20260830201940 76 0.0 0.0 0.00 0.06 0.06 81 1018.8
20260830200920 76 178 1.0 2.0 0.00 0.06 0.06 83 1018.8
20260830195941 76 0.0 0.0 0.00 0.06 0.06 80 1019.1
20260830194920 75 168 0.0 2.0 0.00 0.06 0.06 83 1019.1
20260830193920 75 120 0.0 2.0 0.00 0.06 0.06 84 1019.2
20260830192920 75 0.0 0.0 0.00 0.06 0.06 84 1019.4
20260830191920 75 0.0 0.0 0.00 0.06 0.06 85 1019.8
20260830190920 74 0.0 0.0 0.00 0.06 0.06 84 1019.8
20260830185920 73 0.0 0.0 0.00 0.06 0.06 85 1019.7
20260830184921 73 0.0 0.0 0.00 0.06 0.06 86 1020.0
20260830183920 73 219 1.0 2.0 0.00 0.06 0.06 86 1020.0
20260830182920 73 0.0 0.0 0.00 0.06 0.06 86 1020.0
20260830181920 74 216 0.0 2.0 0.00 0.06 0.06 85 1020.4
20260830180920 74 207 3.0 5.0 0.01 0.06 0.06 82 1020.4
20260830175921 74 223 0.0 2.0 0.01 0.06 0.06 81 1020.4
20260830174920 74 292 2.0 2.0 0.01 0.06 0.06 81 1020.4
20260830173920 74 253 2.0 2.0 0.01 0.06 0.06 84 1020.7
20260830172920 73 210 1.0 2.0 0.02 0.06 0.06 84 1020.7
20260830171920 73 205 1.0 2.0 0.02 0.06 0.06 87 1020.4
20260830170920 72 232 2.0 4.0 0.02 0.04 0.04 90 1020.4
20260830165920 71 192 2.0 4.0 0.03 0.04 0.04 93 1020.7
20260830164920 71 0.0 0.0 0.03 0.04 0.04 94 1020.7
20260830163920 70 0.0 0.0 0.04 0.04 0.04 95 1020.6
20260830162920 70 0.0 0.0 0.03 0.03 0.03 95 1020.6
20260830161920 70 0.0 0.0 0.03 0.03 0.03 96 1020.6
20260830160920 69 0.0 0.0 0.02 0.02 0.02 94 1020.6
20260830155920 69 0.0 0.0 0.01 0.01 0.01 94 1020.6
20260830154920 70 0.0 0.0 0.01 0.01 0.01 93 1021.0
20260830153921 70 0.0 0.0 0.00 0.00 0.00 93 1020.6
20260830152920 69 0.0 0.0 0.00 0.00 0.00 92 1020.6
20260830151920 69 0.0 0.0 0.00 0.00 0.00 91 1020.6
20260830150920 70 0.0 0.0 0.00 0.00 0.00 87 1020.6
20260830150000 70 144 1.0 2.0 0.00 0.00 0.00 85 1020.3
20260830144920 70 160 2.0 2.0 0.00 0.00 0.00 85 1020.0
20260830143940 69 139 2.0 2.0 0.00 0.00 0.00 87 1020.3
20260830142920 69 0.0 0.0 0.00 0.00 0.00 89 1020.0
20260830141920 69 0.0 0.0 0.00 0.00 0.00 89 1020.3
20260830140920 69 0.0 0.0 0.00 0.00 0.00 84 1020.3
20260830135920 69 0.0 0.0 0.00 0.00 0.00 84 1019.9
20260830134920 69 0.0 0.0 0.00 0.00 0.00 83 1019.6
20260830133920 69 186 1.0 2.0 0.00 0.00 0.00 84 1019.6
20260830132920 68 192 1.0 2.0 0.00 0.00 0.00 83 1019.3
20260830131920 68 0.0 0.0 0.00 0.00 0.00 85 1019.3
20260830130920 68 161 1.0 2.0 0.00 0.00 0.00 84 1019.3
20260830125920 67 173 1.0 2.0 0.00 0.00 0.00 83 1019.3
20260830124920 67 155 1.0 2.0 0.00 0.00 0.00 83 1019.6
20260830123920 67 0.0 0.0 0.00 0.00 0.00 84 1019.6
20260830122921 67 170 2.0 3.0 0.00 0.00 0.00 84 1019.3
20260830121920 67 0.0 0.0 0.00 0.00 0.00 85 1019.3
20260830120940 67 0.0 0.0 0.00 0.00 0.00 85 1019.6
20260830115940 67 197 0.0 2.0 0.00 0.00 0.00 83 1019.2
20260830114920 66 0.0 0.0 0.00 0.00 0.00 85 1019.3
20260830113920 66 168 2.0 2.0 0.00 0.00 0.00 83 1019.3
20260830112920 66 0.0 0.0 0.00 0.00 0.00 85 1019.3
20260830111940 65 181 2.0 2.0 0.00 0.00 0.00 84 1019.4
20260830110920 65 0.0 0.0 0.00 0.00 0.00 87 1019.4
20260830105920 66 0.0 0.0 0.00 0.00 0.00 85 1019.4
20260830104920 66 0.0 0.0 0.00 0.00 0.00 86 1019.4
20260830103920 66 0.0 0.0 0.00 0.00 0.00 84 1019.4
20260830102920 66 0.0 0.0 0.00 0.00 0.00 85 1019.4
20260830101920 65 0.0 0.0 0.00 0.00 0.00 85 1019.8
20260830100920 65 0.0 0.0 0.00 0.00 0.00 86 1019.8
20260830095920 65 0.0 0.0 0.00 0.00 0.00 87 1019.8
20260830094920 65 0.0 0.0 0.00 0.00 0.00 88 1019.6
20260830093920 65 0.0 0.0 0.00 0.00 0.00 86 1019.6
20260830092921 65 0.0 0.0 0.00 0.00 0.00 85 1019.6
20260830091920 65 198 0.0 2.0 0.00 0.00 0.00 86 1019.9
20260830090920 65 126 3.0 4.0 0.00 0.00 0.00 84 1019.5
20260830085920 66 0.0 0.0 0.00 0.00 0.00 84 1019.9